User: anonymous   Login
Location: Unspecified
(0.0000°N, 0.0000°E)
Time: 16:23:54
(UTC+00:00)
Language:

Tiros 5 - Orbit

View from above orbital plane
View from above orbital plane
View from above satellite
View from above satellite

Ground track
Ground track

The orbit data is extracted from the following two-line orbital elements,

1   309U 62025A   19015.57662541 -.00000165 +00000-0 +81340-5 0  9993
2   309 058.0912 057.5950 0197169 143.9055 217.5471 14.56779632986718
Epoch (UTC): 15 January 2019 13:50:20
Eccentricity: 0.0197169
inclination: 58.0912°
perigee height: 564 km
apogee height: 843 km
right ascension of ascending node: 57.5950°
argument of perigee: 143.9055°
revolutions per day: 14.56779632
mean anomaly at epoch: 217.5471°
orbit number at epoch: 98671

The dashed part of the orbit path shows where the satellite is in the earth's shadow,  

DLR